Mobile, AL

12:26 AM CDT on October 21, 2017 (GMT -0500)
Mobile Regional

Weather History for KMOB - September, 2014

Change the Weather History Date:

Saturday, September 27, 2014

  Actual Average Record
Temperature  
Mean Temperature 73 °F 74 °F  
Max Temperature 81 °F 84 °F 94 °F (1954)
Min Temperature 64 °F 64 °F 50 °F (2001)
Degree Days  
Heating Degree Days 0 0  
Month to date heating degree days 0 0  
Since 1 July heating degree days 0 0  
Cooling Degree Days 8 10  
Month to date cooling degree days 379 350  
Year to date cooling degree days 2127 2277  
Growing Degree Days 22 (Base 50)    
Moisture  
Dew Point 67 °F    
Average Humidity 85    
Maximum Humidity 100    
Minimum Humidity 69    
Precipitation  
Precipitation 0.00 in 0.16 in 7.50 in (2015)
Month to date precipitation 4.64 4.64  
Year to date precipitation 62.04 51.80  
Sea Level Pressure  
Sea Level Pressure 30.03 in    
Wind  
Wind Speed 8 mph (NE)    
Max Wind Speed 14 mph    
Max Gust Speed 17 mph    
Visibility 10 miles    
Events      
T = Trace of Precipitation, MM = Missing Value Source: NWS Daily Summary

Daily Weather History Graph

Daily Weather History Graph

Search for Another Location

Airport or City:

Trip Planner

Search our weather history database for the weather conditions in past years. The results will help you decide how hot, cold, wet, or windy it might be!

Date:

Astronomy

Sep. 27, 2014 Rise Set
Actual Time 6:44 AM CDT 6:43 PM CDT
Civil Twilight 6:20 AM CDT 7:07 PM CDT
Nautical Twilight 5:52 AM CDT 7:35 PM CDT
Astronomical Twilight 5:24 AM CDT 8:03 PM CDT
Moon 9:45 AM CDT (9/27) 8:57 PM CDT (9/27)
Length of Visible Light 12h 47m
Length of Day
11h 59m
Waxing Crescent, 11% of the Moon is Illuminated
Sep 27
Waxing Crescent
Oct 1
First Quarter
Oct 8
Full
Oct 15
Last Quarter
Oct 23
New

Hourly Weather History & Observations

Time (CDT) Temp. Heat Index Dew Point Humidity Pressure Visibility Wind Dir Wind Speed Gust Speed Precip Events Conditions
12:56 AM 64.9 °F - 62.1 °F 90% 30.04 in 10.0 mi North 3.5 mph - N/A   Clear
1:56 AM 64.9 °F - 62.1 °F 90% 30.02 in 10.0 mi NNE 5.8 mph - N/A   Clear
2:56 AM 64.9 °F - 62.1 °F 90% 30.01 in 10.0 mi NNE 8.1 mph - N/A   Clear
3:56 AM 64.9 °F - 62.1 °F 90% 30.01 in 10.0 mi NNE 8.1 mph - N/A   Clear
4:56 AM 64.0 °F - 62.1 °F 93% 30.02 in 10.0 mi NE 6.9 mph - N/A   Clear
5:56 AM 64.0 °F - 63.0 °F 96% 30.03 in 10.0 mi NE 6.9 mph - N/A   Partly Cloudy
6:56 AM 64.0 °F - 64.0 °F 100% 30.04 in 10.0 mi NE 8.1 mph - N/A   Scattered Clouds
7:39 AM 64.9 °F - 64.9 °F 100% 30.05 in 10.0 mi NE 9.2 mph - N/A   Scattered Clouds
7:56 AM 66.0 °F - 66.0 °F 100% 30.05 in 10.0 mi NE 9.2 mph - N/A   Mostly Cloudy
8:56 AM 68.0 °F - 66.9 °F 96% 30.06 in 6.0 mi ENE 6.9 mph - N/A   Overcast
9:56 AM 71.1 °F - 68.0 °F 90% 30.06 in 10.0 mi ENE 9.2 mph - N/A   Overcast
10:12 AM 72.0 °F - 68.0 °F 87% 30.07 in 10.0 mi ENE 8.1 mph - N/A   Overcast
10:46 AM 73.9 °F - 68.0 °F 82% 30.07 in 10.0 mi ENE 9.2 mph - N/A   Overcast
10:56 AM 75.0 °F - 69.1 °F 82% 30.06 in 10.0 mi ENE 9.2 mph - N/A   Overcast
11:56 AM 77.0 °F - 69.1 °F 76% 30.06 in 10.0 mi ENE 10.4 mph - N/A   Mostly Cloudy
12:32 PM 79.0 °F - 69.1 °F 72% 30.05 in 10.0 mi ENE 11.5 mph - N/A   Mostly Cloudy
12:56 PM 80.1 °F 83.2 °F 70.0 °F 71% 30.04 in 10.0 mi ENE 9.2 mph - N/A   Mostly Cloudy
1:21 PM 81.0 °F 84.4 °F 70.0 °F 69% 30.04 in 10.0 mi ENE 9.2 mph - N/A   Mostly Cloudy
1:56 PM 80.1 °F 83.2 °F 70.0 °F 71% 30.02 in 10.0 mi ENE 9.2 mph - N/A   Overcast
2:05 PM 80.1 °F 83.2 °F 70.0 °F 71% 30.03 in 10.0 mi ENE 8.1 mph - N/A   Overcast
2:56 PM 80.1 °F 83.2 °F 70.0 °F 71% 30.02 in 10.0 mi ENE 6.9 mph - N/A   Overcast
3:56 PM 79.0 °F - 70.0 °F 74% 29.99 in 10.0 mi ESE 10.4 mph - N/A   Overcast
4:56 PM 78.1 °F - 70.0 °F 76% 29.99 in 10.0 mi East 8.1 mph - N/A   Mostly Cloudy
5:56 PM 77.0 °F - 70.0 °F 79% 29.99 in 10.0 mi East 8.1 mph - N/A   Mostly Cloudy
6:03 PM 77.0 °F - 70.0 °F 79% 30.00 in 10.0 mi ENE 5.8 mph - N/A   Overcast
6:56 PM 75.9 °F - 70.0 °F 82% 30.00 in 8.0 mi NE 5.8 mph - N/A   Overcast
7:19 PM 75.0 °F - 70.0 °F 84% 30.00 in 10.0 mi NE 6.9 mph - N/A   Overcast
7:56 PM 75.0 °F - 70.0 °F 84% 30.00 in 10.0 mi NE 6.9 mph - N/A   Overcast
8:56 PM 75.0 °F - 69.1 °F 82% 30.02 in 10.0 mi NE 6.9 mph - N/A   Overcast
9:56 PM 75.0 °F - 69.1 °F 82% 30.04 in 10.0 mi NE 5.8 mph - N/A   Mostly Cloudy
10:56 PM 73.9 °F - 69.1 °F 85% 30.03 in 10.0 mi ENE 8.1 mph - N/A   Scattered Clouds
11:56 PM 73.0 °F - 69.1 °F 87% 30.02 in 10.0 mi ENE 6.9 mph - N/A   Clear